Location: Newark
(37.8444°N, 127.0614°E)
Time: 20:34:55
(UTC+00:00)

AO-73 - Visible Passes

Search period start: 20 January 2020 00:00
Search period end: 30 January 2020 00:00
Orbit: 581 x 664 km, 97.6° (Epoch: 20 January)

Date Brightness Start Highest point End Pass type
(mag) Time Alt. Az. Time Alt. Az. Time Alt. Az.
20 Jan ? 10:24:40 10° W 10:25:14 10° W 10:25:47 10° W visible
20 Jan ? 20:35:34 10° ENE 20:37:23 12° E 20:39:12 10° ESE visible
20 Jan ? 22:09:35 10° N 22:13:49 53° WNW 22:18:07 10° SSW visible
21 Jan ? 20:52:26 10° NE 20:55:40 20° E 20:58:55 10° SE visible
22 Jan ? 09:20:57 10° S 09:24:57 52° W 09:29:00 10° NNW visible
22 Jan ? 21:10:00 10° NNE 21:13:54 31° E 21:17:53 10° SSE visible
23 Jan ? 09:39:28 10° SSW 09:43:08 31° W 09:46:50 10° NNW visible
23 Jan ? 21:27:49 10° NNE 21:32:06 51° E 21:36:27 10° S visible
24 Jan ? 09:58:24 10° SW 10:01:23 19° W 10:04:24 10° NW visible
24 Jan ? 21:45:51 10° NNE 21:50:15 84° E 21:54:45 10° S visible
25 Jan ? 10:18:07 10° WSW 10:19:40 12° W 10:21:13 10° WNW visible
25 Jan ? 20:30:37 10° ENE 20:31:52 11° E 20:33:08 10° ESE visible
25 Jan ? 22:04:01 10° N 22:08:22 60° WNW 22:12:47 10° SSW visible
26 Jan ? 20:47:07 10° NE 20:50:10 18° E 20:53:14 10° SE visible
27 Jan ? 09:15:21 10° S 09:19:24 61° W 09:23:32 10° NNW visible
27 Jan ? 21:04:34 10° NE 21:08:25 28° E 21:12:19 10° SSE visible
28 Jan ? 09:33:48 10° SSW 09:37:35 36° W 09:41:27 10° NNW visible
28 Jan ? 21:22:21 10° NNE 21:26:38 45° E 21:30:58 10° S visible
29 Jan ? 09:52:35 10° SSW 09:55:49 22° W 09:59:05 10° NW visible
29 Jan ? 21:40:20 10° NNE 21:44:48 75° E 21:49:19 10° S visible
